CAPE
0 0 0 455 924 1229 1346 1315 970 912 587 549 467 372 351 314 284 193 201 221 193 307 526 398 467 721 890 1220 722 470 484 333 382 315 250 58 0 0 0 0 0 0 0
0 0 0 0 26 1161 1348 1666 1440 1047 1017 783 709 536 425 445 444 406 275 222 293 454 472 636 635 669 817 1053 715 595 498 412 458 454 260 71 0 0 0 0 0 0 0
0 0 0 0 0 0 989 1282 1648 1638 1290 1045 923 762 686 646 572 580 573 373 364 483 660 727 878 993 1117 651 847 644 505 474 505 402 190 32 0 0 0 0 0 0 0
0 0 0 0 0 0 0 607 1184 1506 1699 1470 1095 1051 935 961 866 881 707 689 571 498 702 880 972 1145 991 905 971 817 697 706 522 258 157 75 1 0 0 0 0 0 0
0 0 0 0 0 0 0 0 8 1024 1749 1742 1513 1481 1252 1383 1456 1190 1069 954 816 681 762 983 1166 1096 858 664 959 1029 768 630 394 233 139 104 5 0 0 0 0 0 0
0 0 0 0 0 0 0 0 0 0 705 1798 1778 1763 1602 1552 1644 1657 1397 1240 1003 964 898 906 1132 1021 964 535 751 1068 728 501 295 112 119 129 44 0 0 0 0 0 0
0 0 0 0 0 0 0 0 0 0 7 918 1708 1930 1915 1787 1652 1839 1676 1495 1062 978 1027 1008 921 824 1232 740 727 948 739 404 319 118 116 65 45 0 0 0 0 0 0
0 0 0 0 0 0 0 0 0 0 0 76 887 1727 1964 1896 1704 1801 1887 1551 1544 1120 887 924 971 768 1165 947 928 697 562 371 288 164 72 46 39 0 0 0 0 0 0
0 0 0 0 0 0 0 0 0 0 0 0 14 416 1087 1662 1618 1665 1738 1619 1563 1205 978 974 974 998 991 1046 663 433 337 250 287 206 67 41 33 3 0 0 0 0 0
0 0 0 0 0 0 0 0 0 0 0 0 0 137 150 650 1312 1585 1717 1744 1143 1078 1094 845 928 1138 944 1028 530 468 340 236 146 101 75 74 24 20 3 0 0 0 0
0 0 0 0 0 0 0 0 0 0 0 1 220 418 738 83 862 1256 1507 1615 1143 883 1138 1076 724 1137 1009 893 597 454 338 138 149 143 96 77 48 16 11 0 0 1 0
0 0 0 0 0 0 0 0 0 0 0 0 152 1108 833 522 916 990 1140 1222 1095 905 1172 1228 699 1054 1218 722 691 390 274 189 202 191 138 120 49 8 13 0 0 0 1
0 0 0 0 0 0 0 0 0 0 0 0 0 556 1314 967 1050 794 756 1159 1062 1025 624 986 1159 1082 1319 512 466 380 285 235 239 179 159 80 15 11 2 1 2 2 0
0 0 0 0 0 0 0 0 0 0 0 0 0 24 1029 1257 1195 1046 992 1322 1202 1080 861 1005 1191 1025 1286 606 410 338 308 269 209 91 100 70 3 1 6 3 5 0 0
0 0 0 0 0 0 0 0 0 0 0 0 0 0 282 939 919 1171 1186 1186 1344 1005 1102 1228 1089 1047 1105 726 598 394 224 182 151 126 62 12 33 24 10 16 1 0 0
0 0 0 0 0 0 0 0 0 0 0 0 0 0 161 346 299 760 1094 1077 1137 1049 989 1210 791 898 658 558 473 310 228 158 181 42 36 11 6 6 2 5 1 0 0
0 0 0 0 0 0 0 0 0 0 0 0 0 0 0 199 225 78 695 759 808 748 773 657 590 595 452 386 291 163 208 167 94 64 14 1 0 6 7 0 0 0 0
0 0 9 0 0 0 0 0 0 0 0 0 0 0 0 18 91 145 212 299 391 418 452 390 314 395 292 196 167 157 284 104 70 26 2 0 0 5 0 0 0 0 0
0 20 0 0 0 0 0 0 0 0 0 0 0 0 0 0 12 110 6 240 186 183 232 171 194 191 202 125 167 139 246 154 44 13 4 0 0 0 0 0 0 0 0
0 0 0 0 0 0 0 0 0 0 0 0 0 0 0 0 5 5 7 116 19 14 57 128 147 80 64 59 115 205 145 85 22 0 3 7 8 0 0 0 0 0 0
0 0 0 0 0 0 0 0 0 0 0 0 0 0 0 0 3 4 3 0 0 4 7 19 105 167 58 36 110 155 145 102 0 1 1 2 0 0 0 0 0 0 0
0 0 0 0 0 0 0 0 0 1 0 0 0 0 0 0 0 0 0 1 0 13 0 0 22 17 49 70 90 173 100 65 1 4 0 0 0 0 0 0 0 0 0
0 0 0 0 0 0 0 0 0 0 0 0 7 0 0 0 0 13 0 1 0 0 0 0 0 1 42 101 199 193 162 17 0 1 0 0 0 0 0 0 0 0 0
0 0 0 0 0 0 0 0 0 0 0 9 66 44 0 0 3 74 36 5 26 0 0 0 0 60 119 149 209 155 188 28 1 0 0 0 0 0 0 0 0 0 0
0 0 0 0 0 0 0 0 0 0 0 13 69 72 7 0 3 70 172 30 1 0 14 3 58 139 43 123 120 116 14 5 0 0 0 0 0 0 0 0 0 0 0
0 0 0 0 0 0 0 0 0 0 0 11 54 38 19 8 5 176 53 62 2 9 17 8 50 82 120 94 13 0 0 0 0 0 0 0 0 0 0 0 0 0 0
CIN
0 0 0 -302 -281 -344 -385 -406 -243 -145 -190 -175 -183 -196 -200 -206 -194 -200 -531 -508 -486 -392 -281 -267 -211 -120 -62 -7 -44 -44 -21 -43 -20 -7 -20 -55 0 0 0 0 0 0 0
0 0 0 0 -333 -250 -357 -351 -391 -352 -189 -169 -187 -189 -194 -196 -198 -188 -435 -230 -440 -355 -333 -265 -212 -158 -79 -29 -49 -53 -30 -13 -6 -4 -7 -58 0 0 0 0 0 0 0
0 0 0 0 0 0 -279 -333 -317 -276 -337 -171 -137 -152 -157 -183 -228 -229 -233 -460 -452 -387 -325 -290 -216 -142 -74 -129 -45 -49 -53 -11 0 -1 -6 -70 0 0 0 0 0 0 0
0 0 0 0 0 0 0 -364 -293 -251 -216 -264 -260 -144 -269 -301 -423 -301 -181 -109 -389 -377 -308 -256 -220 -170 -128 -99 -64 -28 -16 -2 -2 -8 -23 -29 -24 0 0 0 0 0 0
0 0 0 0 0 0 0 0 -157 -278 -166 -194 -239 -213 -249 -266 -244 -256 -286 -289 -114 -270 -295 -228 -180 -169 -190 -153 -89 -27 -11 -41 -23 -17 -37 -11 -20 0 0 0 0 0 0
0 0 0 0 0 0 0 0 0 0 -299 -115 -146 -163 -221 -270 -203 -227 -263 -273 -182 -174 -112 -225 -195 -182 -121 -167 -132 -7 -39 -31 -27 -24 -10 -1 -19 0 0 0 0 0 0
0 0 0 0 0 0 0 0 0 0 -156 -228 -113 -110 -148 -187 -216 -183 -212 -246 -309 -283 -232 -139 -130 -197 -105 -129 -110 -28 -26 -25 -22 -20 -2 -3 0 0 0 0 0 0 0
0 0 0 0 0 0 0 0 0 0 0 -401 -210 -98 -90 -134 -191 -194 -207 -259 -267 -359 -342 -271 -109 -176 -124 -116 -66 -39 -29 -12 -6 -4 -2 -4 -1 0 0 0 0 0 0
0 0 0 0 0 0 0 0 0 0 0 0 -459 -301 -195 -141 -203 -220 -225 -244 -273 -310 -339 -298 -174 -88 -137 -104 -94 -88 -88 -17 0 0 -2 0 -5 -4 0 0 0 0 0
0 0 0 0 0 0 0 0 0 0 0 0 0 -285 -354 -287 -225 -186 -207 -199 -314 -302 -285 -318 -169 -109 -133 -88 -91 -61 -39 -11 -2 0 0 0 0 0 -3 0 0 0 0
0 0 0 0 0 0 0 0 0 0 0 -20 -200 -142 -135 -304 -236 -199 -180 -169 -255 -315 -256 -205 -149 -101 -71 -97 -75 -59 -25 -13 0 0 0 0 0 -3 -9 0 0 -1 0
0 0 0 0 0 0 0 0 0 0 0 0 -156 -22 -90 -164 -190 -221 -194 -172 -197 -285 -211 -83 -104 -80 -48 -88 -62 -80 -44 -12 0 0 -1 0 0 0 0 0 0 0 -14
0 0 0 0 0 0 0 0 0 0 0 0 0 -76 -8 -55 -97 -189 -208 -145 -164 -182 -218 -70 -42 -77 -35 -109 -87 -71 -45 -10 0 0 0 0 0 0 0 0 -1 0 0
0 0 0 0 0 0 0 0 0 0 0 0 0 -104 -15 -9 -26 -72 -110 -95 -74 -92 -128 -51 -25 -48 -31 -37 -47 -48 -33 -5 0 -3 0 -1 -1 0 0 0 0 0 0
0 0 0 0 0 0 0 0 0 0 0 0 0 0 -74 -6 -22 -20 -37 -45 -23 -56 -41 -18 -12 -36 -31 -40 -38 -32 -45 -28 -4 0 -2 0 0 0 -2 -1 0 0 0
0 0 0 0 0 0 0 0 0 0 0 0 0 0 -87 -31 -43 -6 0 -6 -15 -10 -17 -1 -48 -33 -57 -49 -36 -42 -29 -21 -3 -7 0 0 0 0 0 0 0 0 0
0 0 0 0 0 0 0 0 0 0 0 0 0 0 0 -76 -50 -52 0 0 0 0 -9 -21 -38 -41 -54 -49 -27 -40 -5 -4 -5 0 0 0 0 0 0 0 0 0 0
0 0 -9 0 0 0 0 0 0 0 0 0 0 0 0 -183 -99 -62 -21 -11 -12 0 -10 -22 -37 -31 -49 -49 -25 -29 0 -8 -6 -1 -1 0 0 0 0 0 0 0 0
0 -21 0 0 0 0 0 0 0 0 0 0 0 0 0 0 -33 -93 -12 0 -17 -23 -3 -39 -30 -40 -36 -44 -27 -19 0 0 0 0 0 0 0 0 0 0 0 0 0
0 0 0 0 0 0 0 0 0 0 0 0 0 0 0 0 0 0 -7 -19 -42 -6 -2 0 -8 -21 -7 -19 -7 0 0 -1 -1 0 0 0 0 0 0 0 0 0 0
0 0 0 0 0 0 0 0 0 0 0 0 0 0 0 0 0 0 0 0 0 -12 -35 -9 -1 0 -8 -4 -6 0 -6 0 0 -1 0 0 0 0 0 0 0 0 0
0 0 0 0 0 0 0 0 0 -155 0 0 0 0 0 0 0 0 0 0 0 -3 0 0 0 -14 -48 -33 -8 -6 -2 -2 0 -7 0 0 0 0 0 0 0 0 0
0 0 0 0 0 0 0 0 -73 0 0 0 -180 0 0 0 0 -68 0 0 0 -9 -4 0 0 -21 0 0 0 -2 0 -42 0 0 0 0 0 0 0 0 0 0 0
0 0 0 0 0 0 0 0 0 0 0 -159 -80 -73 0 0 -120 -37 -16 -42 -5 -5 0 0 0 -1 0 0 -13 -1 -1 -18 0 0 0 0 0 0 0 0 0 0 0
0 0 0 0 0 0 0 0 0 0 0 -148 -73 -72 -92 0 -14 -22 -1 -22 0 0 -15 0 -21 0 -8 0 -4 -5 -22 0 0 0 0 0 0 0 0 0 0 0 0
0 0 0 0 0 0 0 0 0 0 0 -169 -83 -83 -51 -44 -1 -1 -16 -3 -69 -74 -31 -33 -13 -4 -1 -4 -24 -12 0 0 0 0 0 0 0 0 0 0 0 0 0
Wind_Speed
nan nan nan 26 26 28 27 23 24 24 31 24 22 19 19 21 20 20 22 25 28 32 30 24 24 25 26 28 31 32 33 33 34 35 35 nan nan nan nan nan nan nan nan
nan nan nan nan nan 31 29 26 23 28 29 26 23 22 21 20 22 24 23 24 28 31 32 29 26 26 26 27 33 36 35 33 35 34 36 nan nan nan nan nan nan nan nan
nan nan nan nan nan nan 36 30 28 28 29 30 31 28 27 26 23 22 22 24 27 32 33 35 32 31 30 30 35 39 42 36 35 33 36 nan nan nan nan nan nan nan nan
nan nan nan nan nan nan nan 41 34 33 35 36 39 29 28 25 22 26 26 24 25 27 31 34 39 39 35 34 39 40 41 47 42 38 34 nan nan nan nan nan nan nan nan
nan nan nan nan nan nan nan nan nan 42 41 40 37 38 29 32 29 29 27 27 26 27 30 33 38 42 41 40 45 49 49 47 47 39 37 38 nan nan nan nan nan nan nan
nan nan nan nan nan nan nan nan nan nan 46 44 40 33 27 26 32 30 31 31 37 37 33 34 37 42 43 46 47 49 55 53 46 43 39 41 nan nan nan nan nan nan nan
nan nan nan nan nan nan nan nan nan nan nan 47 42 38 29 28 29 30 35 33 35 40 40 41 41 42 45 49 54 55 53 50 44 41 38 nan nan nan nan nan nan nan nan
nan nan nan nan nan nan nan nan nan nan nan nan 47 44 37 37 33 31 35 33 31 37 42 44 47 44 49 51 54 52 52 53 51 42 nan nan nan nan nan nan nan nan nan
nan nan nan nan nan nan nan nan nan nan nan nan nan 44 43 41 39 33 37 37 30 35 42 48 53 51 51 55 57 51 53 48 50 43 nan nan nan nan nan nan nan nan nan
nan nan nan nan nan nan nan nan nan nan nan nan nan 55 49 46 43 43 34 38 38 37 48 52 55 56 54 57 56 56 57 47 37 39 nan nan nan nan nan nan nan nan nan
nan nan nan nan nan nan nan nan nan nan nan nan 59 58 55 nan 45 45 37 35 41 47 53 54 61 58 58 57 57 60 62 59 49 47 nan nan nan nan nan nan nan nan nan
nan nan nan nan nan nan nan nan nan nan nan nan 63 65 64 65 55 50 46 43 45 54 55 57 64 58 59 56 61 64 64 61 59 60 60 60 nan nan nan nan nan nan nan
nan nan nan nan nan nan nan nan nan nan nan nan nan 62 60 62 59 60 61 56 56 59 56 61 66 62 63 57 60 64 64 56 56 58 59 nan nan nan nan nan nan nan nan
nan nan nan nan nan nan nan nan nan nan nan nan nan nan 66 60 53 55 60 56 56 58 56 62 65 64 66 62 64 64 63 54 52 nan 53 nan nan nan nan nan nan nan nan
nan nan nan nan nan nan nan nan nan nan nan nan nan nan 67 66 63 60 56 55 58 59 62 67 67 67 68 63 66 63 60 56 51 49 nan nan nan nan nan nan nan nan nan
nan nan nan nan nan nan nan nan nan nan nan nan nan nan 63 65 67 56 56 55 61 67 65 67 65 70 67 66 73 72 56 56 56 nan nan nan nan nan nan nan nan nan nan
nan nan nan nan nan nan nan nan nan nan nan nan nan nan nan 58 64 nan 58 58 58 63 67 67 68 71 73 77 77 78 57 57 nan nan nan nan nan nan nan nan nan nan nan
nan nan nan nan nan nan nan nan nan nan nan nan nan nan nan nan nan 58 61 59 60 61 64 68 70 74 79 83 79 73 59 57 nan nan nan nan nan nan nan nan nan nan nan
nan nan nan nan nan nan nan nan nan nan nan nan nan nan nan nan nan 50 nan 64 63 63 68 69 70 73 78 84 81 79 65 59 nan nan nan nan nan nan nan nan nan nan nan
nan nan nan nan nan nan nan nan nan nan nan nan nan nan nan nan nan nan nan 62 nan nan nan 71 71 nan nan nan 85 80 55 nan nan nan nan nan nan nan nan nan nan nan nan
nan nan nan nan nan nan nan nan nan nan nan nan nan nan nan nan nan nan nan nan nan nan nan nan 73 69 nan nan 68 51 52 43 nan nan nan nan nan nan nan nan nan nan nan
nan nan nan nan nan nan nan nan nan nan nan nan nan nan nan nan nan nan nan nan nan nan nan nan nan nan nan nan nan 51 50 nan nan nan nan nan nan nan nan nan nan nan nan
nan nan nan nan nan nan nan nan nan nan nan nan nan nan nan nan nan nan nan nan nan nan nan nan nan nan nan 37 56 58 60 nan nan nan nan nan nan nan nan nan nan nan nan
nan nan nan nan nan nan nan nan nan nan nan nan nan nan nan nan nan nan nan nan nan nan nan nan nan nan 38 43 51 54 59 nan nan nan nan nan nan nan nan nan nan nan nan
nan nan nan nan nan nan nan nan nan nan nan nan nan nan nan nan nan nan 47 nan nan nan nan nan nan 42 nan 44 58 59 nan nan nan nan nan nan nan nan nan nan nan nan nan
nan nan nan nan nan nan nan nan nan nan nan nan nan nan nan nan nan 43 nan nan nan nan nan nan nan nan 55 nan nan nan nan nan nan nan nan nan nan nan nan nan nan nan nan
Wind_Direction
nan nan nan 263 274 287 296 307 306 307 289 289 291 290 297 299 302 304 322 329 327 330 328 322 320 312 304 297 298 292 292 281 282 281 282 nan nan nan nan nan nan nan nan
nan nan nan nan nan 278 288 294 299 295 294 275 274 274 277 279 290 298 307 315 321 325 327 326 319 321 312 305 297 291 282 278 285 277 277 nan nan nan nan nan nan nan nan
nan nan nan nan nan nan 271 279 285 284 281 277 261 266 267 268 275 292 287 300 310 317 324 325 319 317 315 310 310 301 291 278 278 273 271 nan nan nan nan nan nan nan nan
nan nan nan nan nan nan nan 261 270 276 273 276 273 280 274 276 271 275 281 277 301 310 313 316 316 317 312 311 306 303 300 285 274 264 269 nan nan nan nan nan nan nan nan
nan nan nan nan nan nan nan nan nan 268 272 275 271 269 278 280 269 269 289 280 281 301 307 310 311 314 314 311 306 300 296 293 283 270 267 271 nan nan nan nan nan nan nan
nan nan nan nan nan nan nan nan nan nan 265 270 270 271 275 270 270 282 283 286 276 283 301 310 308 308 313 310 303 301 301 299 296 279 272 274 nan nan nan nan nan nan nan
nan nan nan nan nan nan nan nan nan nan nan 261 267 267 267 268 272 278 276 282 281 280 292 303 299 301 308 304 300 301 301 303 299 285 278 nan nan nan nan nan nan nan nan
nan nan nan nan nan nan nan nan nan nan nan nan 260 267 268 267 265 276 278 278 285 280 283 293 295 300 301 300 300 302 303 299 292 286 nan nan nan nan nan nan nan nan nan
nan nan nan nan nan nan nan nan nan nan nan nan nan 257 266 274 275 274 273 272 277 276 279 286 289 291 299 301 302 300 305 302 285 288 nan nan nan nan nan nan nan nan nan
nan nan nan nan nan nan nan nan nan nan nan nan nan 253 257 265 270 274 272 275 272 270 271 280 282 287 291 296 297 293 293 302 293 276 nan nan nan nan nan nan nan nan nan
nan nan nan nan nan nan nan nan nan nan nan nan 245 251 257 nan 266 269 267 262 268 273 268 273 274 282 284 290 291 289 292 295 293 293 nan nan nan nan nan nan nan nan nan
nan nan nan nan nan nan nan nan nan nan nan nan 243 248 253 260 263 263 266 262 267 270 268 269 272 279 282 286 289 290 291 293 295 297 295 290 nan nan nan nan nan nan nan
nan nan nan nan nan nan nan nan nan nan nan nan nan 243 247 257 262 263 265 259 262 267 260 265 271 277 281 285 288 288 290 291 296 299 298 nan nan nan nan nan nan nan nan
nan nan nan nan nan nan nan nan nan nan nan nan nan nan 243 254 260 260 265 266 260 262 259 263 269 274 278 284 283 285 289 292 297 nan 297 nan nan nan nan nan nan nan nan
nan nan nan nan nan nan nan nan nan nan nan nan nan nan 237 247 254 259 264 268 267 256 257 263 269 274 276 280 286 289 291 297 296 293 nan nan nan nan nan nan nan nan nan
nan nan nan nan nan nan nan nan nan nan nan nan nan nan 237 244 252 249 258 258 263 254 255 260 269 272 274 283 291 289 287 293 294 nan nan nan nan nan nan nan nan nan nan
nan nan nan nan nan nan nan nan nan nan nan nan nan nan nan 241 253 nan 250 253 258 258 260 261 267 272 274 284 287 287 286 289 nan nan nan nan nan nan nan nan nan nan nan
nan nan nan nan nan nan nan nan nan nan nan nan nan nan nan nan nan 255 254 253 254 260 259 262 265 269 273 284 288 286 287 289 nan nan nan nan nan nan nan nan nan nan nan
nan nan nan nan nan nan nan nan nan nan nan nan nan nan nan nan nan 249 nan 259 260 256 256 257 263 269 274 285 288 284 284 288 nan nan nan nan nan nan nan nan nan nan nan
nan nan nan nan nan nan nan nan nan nan nan nan nan nan nan nan nan nan nan 260 nan nan nan 261 265 nan nan nan 292 280 274 nan nan nan nan nan nan nan nan nan nan nan nan
nan nan nan nan nan nan nan nan nan nan nan nan nan nan nan nan nan nan nan nan nan nan nan nan 263 271 nan nan 282 279 282 282 nan nan nan nan nan nan nan nan nan nan nan
nan nan nan nan nan nan nan nan nan nan nan nan nan nan nan nan nan nan nan nan nan nan nan nan nan nan nan nan nan 281 285 nan nan nan nan nan nan nan nan nan nan nan nan
nan nan nan nan nan nan nan nan nan nan nan nan nan nan nan nan nan nan nan nan nan nan nan nan nan nan nan 265 282 287 290 nan nan nan nan nan nan nan nan nan nan nan nan
nan nan nan nan nan nan nan nan nan nan nan nan nan nan nan nan nan nan nan nan nan nan nan nan nan nan 282 284 282 286 286 nan nan nan nan nan nan nan nan nan nan nan nan
nan nan nan nan nan nan nan nan nan nan nan nan nan nan nan nan nan nan 260 nan nan nan nan nan nan 278 nan 279 284 289 nan nan nan nan nan nan nan nan nan nan nan nan nan
nan nan nan nan nan nan nan nan nan nan nan nan nan nan nan nan nan 253 nan nan nan nan nan nan nan nan 275 nan nan nan nan nan nan nan nan nan nan nan nan nan nan nan nan